| time (UTC) | temp F | wind direction | speed MPH | gust MPH | rain 1hr in | rain 24hr in | rain mn in | humidity % | barometer mb |
| 20260831044604 | 72 | 136 | 0.0 | 4.0 | 0.00 | 0.00 | 0.00 | 85 | 1011.6 |
| 20260831043108 | 73 | 183 | 1.0 | 6.0 | 0.00 | 0.00 | 0.00 | 85 | 1011.5 |
| 20260831041559 | 73 | 142 | 1.0 | 7.0 | 0.00 | 0.00 | 0.00 | 85 | 1011.3 |
| 20260831040106 | 73 | 136 | 0.0 | 2.0 | 0.00 | 0.00 | 0.00 | 84 | 1011.3 |
| 20260831034610 | 73 | 140 | 1.0 | 5.0 | 0.00 | 0.00 | 0.00 | 82 | 1011.1 |
| 20260831033103 | 73 | 148 | 0.0 | 3.0 | 0.00 | 0.00 | 0.00 | 80 | 1010.8 |
| 20260831031606 | 73 | 0 | 1.0 | 6.0 | 0.00 | 0.00 | 0.00 | 79 | 1010.7 |
| 20260831024616 | 73 | 0 | 1.0 | 7.0 | 0.00 | 0.00 | 0.00 | 74 | 1010.6 |
| 20260831023055 | 73 | 115 | 2.0 | 9.0 | 0.00 | 0.00 | 0.00 | 75 | 1010.4 |
| 20260831021605 | 74 | 134 | 1.0 | 7.0 | 0.00 | 0.00 | 0.00 | 76 | 1010.3 |
| 20260831020103 | 74 | 119 | 2.0 | 7.0 | 0.00 | 0.00 | 0.00 | 74 | 1010.2 |
| 20260831014602 | 75 | 150 | 1.0 | 4.0 | 0.00 | 0.00 | 0.00 | 77 | 1010.3 |
| 20260831013056 | 76 | 127 | 2.0 | 9.0 | 0.00 | 0.00 | 0.00 | 77 | 1010.3 |
| 20260831011604 | 76 | 128 | 2.0 | 7.0 | 0.00 | 0.00 | 0.00 | 78 | 1010.3 |
| 20260831010130 | 77 | 132 | 2.0 | 9.0 | 0.00 | 0.00 | 0.00 | 77 | 1010.5 |
| 20260831004613 | 78 | 205 | 1.0 | 10.0 | 0.00 | 0.00 | 0.00 | 77 | 1010.5 |
| 20260831003110 | 79 | 128 | 1.0 | 8.0 | 0.00 | 0.00 | 0.00 | 77 | 1010.4 |
| 20260831001609 | 80 | 171 | 3.0 | 10.0 | 0.00 | 0.00 | 0.00 | 76 | 1010.3 |
| 20260831000106 | 80 | 163 | 2.0 | 8.0 | 0.00 | 0.00 | 0.00 | 76 | 1010.2 |
| 20260830234605 | 81 | 145 | 3.0 | 10.0 | 0.00 | 0.00 | 0.00 | 75 | 1010.2 |
| 20260830233104 | 82 | 150 | 1.0 | 7.0 | 0.00 | 0.00 | 0.00 | 75 | 1010.2 |
| 20260830231600 | 82 | 152 | 1.0 | 7.0 | 0.00 | 0.00 | 0.00 | 74 | 1010.3 |
| 20260830230057 | 82 | 147 | 3.0 | 7.0 | 0.00 | 0.00 | 0.00 | 73 | 1010.3 |
| 20260830224609 | 82 | 107 | 1.0 | 6.0 | 0.00 | 0.00 | 0.00 | 72 | 1010.5 |
| 20260830223104 | 83 | 117 | 1.0 | 9.0 | 0.00 | 0.00 | 0.00 | 72 | 1010.6 |
| 20260830221600 | 83 | 104 | 1.0 | 8.0 | 0.00 | 0.00 | 0.00 | 71 | 1010.8 |
| 20260830220120 | 83 | 186 | 1.0 | 9.0 | 0.00 | 0.00 | 0.00 | 72 | 1010.9 |
| 20260830214605 | 82 | 106 | 2.0 | 8.0 | 0.00 | 0.00 | 0.00 | 73 | 1011.2 |
| 20260830213053 | 81 | 113 | 2.0 | 7.0 | 0.00 | 0.00 | 0.00 | 74 | 1011.4 |
| 20260830211604 | 82 | 112 | 2.0 | 7.0 | 0.00 | 0.00 | 0.00 | 74 | 1011.5 |
| 20260830210106 | 82 | 162 | 3.0 | 10.0 | 0.00 | 0.00 | 0.00 | 73 | 1011.7 |
| 20260830204600 | 83 | 0 | 1.0 | 11.0 | 0.00 | 0.00 | 0.00 | 72 | 1011.8 |
| 20260830203115 | 83 | 120 | 2.0 | 9.0 | 0.00 | 0.00 | 0.00 | 72 | 1011.7 |
| 20260830201601 | 82 | 0 | 3.0 | 9.0 | 0.00 | 0.00 | 0.00 | 73 | 1011.8 |
| 20260830200104 | 83 | 103 | 3.0 | 9.0 | 0.00 | 0.00 | 0.00 | 72 | 1011.7 |
| 20260830194559 | 83 | 161 | 2.0 | 9.0 | 0.00 | 0.00 | 0.00 | 72 | 1011.8 |
| 20260830193055 | 83 | 111 | 1.0 | 7.0 | 0.00 | 0.00 | 0.00 | 72 | 1011.8 |
| 20260830191601 | 83 | 125 | 1.0 | 8.0 | 0.00 | 0.00 | 0.00 | 72 | 1011.9 |
| 20260830190103 | 84 | 179 | 1.0 | 6.0 | 0.00 | 0.00 | 0.00 | 70 | 1012.1 |
| 20260830184613 | 83 | 0 | 2.0 | 9.0 | 0.00 | 0.00 | 0.00 | 71 | 1012.2 |
| 20260830183124 | 83 | 157 | 1.0 | 8.0 | 0.00 | 0.00 | 0.00 | 69 | 1012.1 |
| 20260830181623 | 84 | 155 | 1.0 | 5.0 | 0.00 | 0.00 | 0.00 | 67 | 1011.9 |
| 20260830180112 | 84 | 123 | 1.0 | 7.0 | 0.00 | 0.00 | 0.00 | 66 | 1012.2 |
| 20260830174601 | 83 | 0 | 1.0 | 4.0 | 0.00 | 0.00 | 0.00 | 66 | 1012.1 |
| 20260830173138 | 82 | 352 | 1.0 | 6.0 | 0.00 | 0.00 | 0.00 | 66 | 1012.2 |
| 20260830171606 | 82 | 335 | 2.0 | 5.0 | 0.00 | 0.00 | 0.00 | 65 | 1012.2 |
| 20260830170059 | 81 | 9 | 2.0 | 5.0 | 0.00 | 0.00 | 0.00 | 68 | 1012.1 |
| 20260830164608 | 81 | 76 | 1.0 | 4.0 | 0.00 | 0.00 | 0.00 | 69 | 1012.1 |
| 20260830163104 | 80 | 36 | 0.0 | 3.0 | 0.00 | 0.00 | 0.00 | 71 | 1012.3 |
| 20260830161612 | 79 | 23 | 2.0 | 5.0 | 0.00 | 0.00 | 0.00 | 73 | 1012.1 |
| 20260830160103 | 78 | 0 | 2.0 | 5.0 | 0.00 | 0.00 | 0.00 | 75 | 1012.2 |
| 20260830154601 | 77 | 202 | 1.0 | 3.0 | 0.00 | 0.00 | 0.00 | 77 | 1012.1 |
| 20260830153058 | 76 | 0 | 1.0 | 3.0 | 0.00 | 0.00 | 0.00 | 80 | 1012.2 |
| 20260830151603 | 76 | 0 | 0.0 | 2.0 | 0.00 | 0.00 | 0.00 | 81 | 1012.2 |
| 20260830150104 | 74 | 185 | 0.0 | 4.0 | 0.00 | 0.00 | 0.00 | 83 | 1012.2 |
| 20260830144605 | 73 | 126 | 1.0 | 3.0 | 0.00 | 0.00 | 0.00 | 84 | 1012.3 |
| 20260830143104 | 72 | 124 | 0.0 | 2.0 | 0.00 | 0.00 | 0.00 | 86 | 1012.1 |
| 20260830141602 | 71 | 0 | 0.0 | 1.0 | 0.00 | 0.00 | 0.00 | 89 | 1012.0 |
| 20260830140109 | 70 | 0 | 0.0 | 0.0 | 0.00 | 0.00 | 0.00 | 89 | 1011.9 |
| 20260830134600 | 70 | 0 | 0.0 | 0.0 | 0.00 | 0.00 | 0.00 | 88 | 1011.8 |
| 20260830133104 | 70 | 0 | 0.0 | 0.0 | 0.00 | 0.00 | 0.00 | 89 | 1011.5 |
| 20260830131616 | 70 | 0 | 0.0 | 0.0 | 0.00 | 0.00 | 0.00 | 88 | 1011.2 |
| 20260830130104 | 70 | 0 | 0.0 | 0.0 | 0.00 | 0.00 | 0.00 | 88 | 1011.2 |
| 20260830124554 | 70 | 0 | 0.0 | 0.0 | 0.00 | 0.00 | 0.00 | 88 | 1011.2 |
| 20260830123105 | 70 | 0 | 0.0 | 0.0 | 0.00 | 0.00 | 0.00 | 87 | 1011.2 |
| 20260830121601 | 71 | 0 | 0.0 | 0.0 | 0.00 | 0.00 | 0.00 | 87 | 1011.1 |
| 20260830120100 | 71 | 0 | 0.0 | 0.0 | 0.00 | 0.00 | 0.00 | 87 | 1011.0 |
| 20260830114605 | 71 | 0 | 0.0 | 1.0 | 0.00 | 0.00 | 0.00 | 86 | 1011.0 |
| 20260830113100 | 71 | 0 | 0.0 | 1.0 | 0.00 | 0.00 | 0.00 | 87 | 1010.9 |
| 20260830111559 | 71 | 0 | 0.0 | 1.0 | 0.00 | 0.00 | 0.00 | 87 | 1010.9 |
| 20260830110142 | 71 | 123 | 0.0 | 2.0 | 0.00 | 0.00 | 0.00 | 87 | 1010.9 |
| 20260830104606 | 72 | 0 | 0.0 | 1.0 | 0.00 | 0.00 | 0.00 | 87 | 1010.9 |
| 20260830103107 | 71 | 0 | 0.0 | 1.0 | 0.00 | 0.00 | 0.00 | 87 | 1011.0 |
| 20260830101615 | 71 | 0 | 0.0 | 2.0 | 0.00 | 0.00 | 0.00 | 87 | 1011.0 |
| 20260830100059 | 71 | 0 | 0.0 | 3.0 | 0.00 | 0.00 | 0.00 | 87 | 1011.0 |
| 20260830094605 | 71 | 0 | 0.0 | 2.0 | 0.00 | 0.00 | 0.00 | 87 | 1011.0 |
| 20260830093139 | 71 | 0 | 0.0 | 2.0 | 0.00 | 0.00 | 0.00 | 88 | 1010.9 |
| 20260830091606 | 72 | 0 | 0.0 | 1.0 | 0.00 | 0.00 | 0.00 | 87 | 1010.9 |
| 20260830090105 | 72 | 0 | 0.0 | 1.0 | 0.00 | 0.00 | 0.00 | 87 | 1010.8 |
| 20260830084605 | 72 | 113 | 0.0 | 2.0 | 0.00 | 0.00 | 0.00 | 87 | 1010.9 |
| 20260830083100 | 72 | 113 | 0.0 | 3.0 | 0.00 | 0.00 | 0.00 | 86 | 1010.9 |
| 20260830081555 | 73 | 0 | 0.0 | 2.0 | 0.00 | 0.00 | 0.00 | 85 | 1011.1 |
| 20260830080104 | 73 | 0 | 1.0 | 2.0 | 0.00 | 0.00 | 0.00 | 84 | 1011.0 |
| 20260830074656 | 73 | 0 | 0.0 | 1.0 | 0.00 | 0.00 | 0.00 | 82 | 1011.0 |
| 20260830073111 | 73 | 0 | 0.0 | 2.0 | 0.00 | 0.00 | 0.00 | 82 | 1011.0 |
| 20260830071624 | 73 | 113 | 1.0 | 3.0 | 0.00 | 0.00 | 0.00 | 82 | 1011.0 |
| 20260830064602 | 73 | 120 | 0.0 | 3.0 | 0.00 | 0.00 | 0.00 | 84 | 1010.8 |
| 20260830063106 | 73 | 0 | 0.0 | 2.0 | 0.00 | 0.00 | 0.00 | 85 | 1010.7 |
| 20260830061603 | 73 | 0 | 0.0 | 2.0 | 0.00 | 0.00 | 0.00 | 85 | 1010.7 |
| 20260830054608 | 74 | 0 | 0.0 | 3.0 | 0.00 | 0.00 | 0.00 | 85 | 1010.4 |
| 20260830053104 | 74 | 132 | 0.0 | 3.0 | 0.00 | 0.00 | 0.00 | 84 | 1010.5 |
| 20260830051605 | 74 | 130 | 0.0 | 5.0 | 0.00 | 0.00 | 0.00 | 82 | 1010.5 |
| 20260830050112 | 74 | 152 | 1.0 | 8.0 | 0.00 | 0.00 | 0.00 | 80 | 1010.4 |